This is the latest recevied weather packets stored in our database for station/object EA3HRE-13. If no packets are shown the sender has not sent any weather packets the latest 10 day(s).
| Time | Temp. | Humidity | Pressure | Rain* | Wind** | Luminosity | Snow |
|---|---|---|---|---|---|---|---|
| 1788085729 | 27.22° C | 100% | 2116 hPa | 0 mm | - | - | - |
| 1788085129 | 26.67° C | 100% | 2116 hPa | 0 mm | - | - | - |
| 1788084499 | 26.67° C | 100% | 2116 hPa | 0 mm | - | - | - |
| 1788083869 | 26.67° C | 100% | 2116.1 hPa | 0 mm | - | - | - |
| 1788083269 | 26.11° C | 100% | 2116.1 hPa | 0 mm | - | - | - |
| 1788082669 | 26.11° C | 100% | 2116.1 hPa | 0 mm | - | - | - |
| 1788082069 | 26.11° C | 100% | 2116.2 hPa | 0 mm | - | - | - |
| 1788081469 | 26.11° C | 100% | 2116.3 hPa | 0 mm | - | - | - |
| 1788080868 | 25.56° C | 100% | 2116.4 hPa | 0 mm | - | - | - |
| 1788080238 | 25.56° C | 100% | 2116.4 hPa | 0 mm | - | - | - |
| 1788079638 | 25.56° C | 100% | 2116.3 hPa | 0 mm | - | - | - |
| 1788079008 | 25° C | 100% | 2116.2 hPa | 0 mm | - | - | - |
| 1788078408 | 25° C | 100% | 2116.2 hPa | 0 mm | - | - | - |
| 1788077808 | 24.44° C | 100% | 2116.3 hPa | 0 mm | - | - | - |
| 1788077208 | 24.44° C | 100% | 2116.2 hPa | 0 mm | - | - | - |
| 1788076607 | 23.89° C | 100% | 2116.3 hPa | 0 mm | - | - | - |
| 1788076007 | 23.33° C | 100% | 2116.3 hPa | 0 mm | - | - | - |
| 1788075377 | 23.33° C | 100% | 2116.3 hPa | 0 mm | - | - | - |
| 1788074764 | 22.78° C | 100% | 2116.3 hPa | 0 mm | - | - | - |
| 1788074164 | 22.78° C | 100% | 2116.1 hPa | 0 mm | - | - | - |
| 1788073534 | 21.67° C | 100% | 2116.2 hPa | 0 mm | - | - | - |
| 1788072934 | 21.11° C | 100% | 2116.1 hPa | 0 mm | - | - | - |
| 1788072303 | 21.11° C | 100% | 2116.1 hPa | 0 mm | - | - | - |
| 1788071703 | 20.56° C | 100% | 2116 hPa | 0 mm | - | - | - |
| 1788071103 | 20° C | 100% | 2115.9 hPa | 0 mm | - | - | - |
* Rain latest hour (hover to see other rain measurements)
** Current wind speed in m/s (hover to see current wind gust speed)